Retour au catalogue

SNIPE 4

ActifScienceSSO
NORAD 56744·PAYLOAD·🇰🇷 South Korea
Ce nom de satellite n'a pas encore été confirmé par des sources officielles.

Lancé May 25, 2023 depuis Naro Space Center

Loading…

Prochains Passages (prochaines 24 heures)

TLE

FraisSource: Space-Track

Époque: Sep 14, 2026, 14:03 UTC

1 56744U 23072B   26257.58561428  .00018131  00000-0  37764-3 0  9995
2 56744  97.5146 106.6117 0005260  18.8730 341.2713 15.45640908183906

Suivez SNIPE 4 en temps réel avec AllMySat

Download on the App Store